Temp_Advection
nan nan nan nan nan nan nan nan nan nan nan nan nan nan nan nan nan nan nan nan nan nan nan nan nan nan nan nan nan nan nan nan nan nan nan nan nan nan nan nan nan nan nan nan nan nan nan nan nan
nan -0 -1 -1 -1 -1 -0 -0 0 0 0 -0 0 -0 -0 0 0 0 0 0 -0 -0 0 0 0 0 0 1 0 0 0 0 1 1 0 0 -0 0 1 -0 -0 0 -0 -0 -0 0 0 0 nan
nan -1 -2 -1 -0 -0 -0 -0 0 0 0 -0 -0 0 0 -0 -0 0 -0 0 0 0 0 0 0 1 1 0 0 0 0 1 1 -0 0 0 0 0 1 0 -1 0 0 -0 -0 -0 0 0 nan
nan -1 -1 -1 -1 -0 0 -0 0 0 0 0 -0 -0 0 0 0 0 0 -0 0 0 0 0 0 0 0 0 0 1 0 0 -0 -0 1 -0 1 1 0 1 -0 -0 0 0 0 0 0 -0 nan
nan -1 -1 -1 -1 -0 0 0 -0 -0 0 0 0 -0 0 0 0 0 0 -0 0 0 0 -0 0 0 0 0 1 1 -0 0 -0 0 1 -0 -0 1 0 0 1 -0 0 0 0 0 0 0 nan
nan -1 -0 -1 -0 0 0 0 0 -0 0 0 0 -0 0 0 0 0 0 -0 -0 1 0 -0 1 0 -0 2 2 1 -0 0 0 0 -0 -0 -0 -1 0 0 0 0 0 0 0 0 -0 -0 nan
nan -0 -0 -0 -0 -0 0 0 0 -0 0 0 0 0 0 1 -0 0 0 -0 0 0 1 0 -0 1 1 1 3 -0 -0 0 1 0 -0 -0 0 -0 0 0 0 0 0 0 0 0 0 0 nan
nan -0 -0 -1 -0 -0 0 0 0 -0 -0 0 -0 -0 1 -1 -0 -0 -0 -0 -0 0 1 0 0 1 1 1 0 -1 1 1 1 0 0 0 1 -0 0 1 0 0 0 0 0 0 0 0 nan
nan -1 -1 -1 -0 -0 0 0 0 0 -0 -0 0 0 1 1 0 -0 0 0 -0 -0 0 0 0 1 1 0 -1 -1 1 2 1 1 1 1 1 0 1 1 1 1 0 0 0 0 0 0 nan
nan -0 -1 -1 0 0 0 0 0 0 -0 -0 0 0 2 0 0 -0 0 0 1 1 0 -0 -0 0 -0 -0 -0 -0 -0 1 1 1 1 2 0 1 1 -0 1 1 1 0 0 0 0 1 nan
nan -1 -1 -0 0 0 -0 0 0 -0 0 -0 0 0 0 0 1 0 0 0 0 0 1 0 -0 0 -0 -0 -0 -0 -0 0 1 1 1 1 0 0 0 0 0 0 0 0 0 0 0 0 nan
nan -1 -0 -0 -0 -0 0 0 -0 -0 0 0 0 1 0 1 0 0 1 0 0 1 0 0 -0 0 -0 -0 -0 -0 0 -0 0 0 0 0 0 -0 -0 1 0 1 1 0 1 0 -0 -0 nan
nan 0 0 -0 -0 0 -0 -0 -0 0 0 0 0 1 1 1 0 1 1 0 0 0 0 0 0 0 0 0 -0 0 0 0 -0 1 1 0 0 -0 0 1 -0 0 0 0 0 0 -0 -0 nan
nan 0 0 -0 -0 -0 -0 0 0 -0 0 0 0 1 1 0 0 1 0 0 0 0 0 0 0 0 0 0 0 0 0 0 -0 1 1 -0 0 0 0 -0 -0 -1 -1 -0 -1 -0 0 -0 nan
nan -1 -1 -0 -0 -0 0 -0 -1 -0 0 0 1 1 1 0 0 0 0 1 0 0 0 0 0 0 0 0 0 0 0 0 1 1 0 1 1 1 0 -0 -0 -0 -0 -0 -0 0 0 -0 nan
nan 0 -1 -1 -1 0 1 -1 -1 0 0 0 -0 0 1 0 0 0 1 1 1 0 0 -0 -0 0 0 -0 0 0 0 0 1 -0 0 1 1 1 1 0 0 0 0 0 0 0 -0 -0 nan
nan -1 -2 -1 -0 0 0 -1 -1 -0 0 -0 -0 0 0 1 1 0 0 0 1 0 -0 -0 0 0 -0 -0 0 0 0 1 1 -0 0 1 1 1 0 0 1 1 0 0 0 0 0 0 nan
nan -1 -1 -1 -1 0 0 -1 -0 -0 -0 -0 0 0 0 1 1 1 0 0 0 0 -0 0 0 0 0 0 0 0 0 1 0 0 1 -0 0 1 0 1 1 1 1 1 1 0 0 0 nan
nan -2 -1 -1 0 0 0 -0 -1 -0 -0 0 0 0 0 1 1 1 1 0 0 0 -0 -0 0 0 0 0 0 0 0 -0 0 0 0 0 1 1 1 1 0 0 1 1 0 0 0 0 nan
nan -1 -1 -1 -1 0 0 -0 -1 -1 -0 0 0 0 0 1 0 1 0 0 0 -0 0 -0 -0 0 0 0 0 -0 0 -0 0 0 0 0 0 0 1 0 -0 -0 0 -0 -0 0 0 0 nan
nan -0 -1 -1 -1 -0 0 -0 -1 -1 -0 -0 0 0 0 1 0 0 0 0 -0 -0 0 1 -0 0 0 0 -0 -0 0 0 0 0 0 1 1 1 1 0 -1 -1 -0 0 -0 -1 -0 0 nan
nan -1 0 -0 -0 -1 -0 -0 -2 -1 -0 0 0 0 0 1 1 0 0 0 -0 -0 0 0 0 0 0 0 -0 0 -0 -0 -0 0 0 1 1 0 1 -0 -1 -0 0 0 -1 -1 -0 -0 nan
nan -0 0 -0 -0 -0 -0 -1 -1 -0 -0 -1 -0 0 1 0 1 1 0 -0 -0 0 -0 -0 0 0 0 0 0 -0 -0 -0 -0 0 1 0 -0 -1 -1 -1 -1 1 0 -1 -1 0 0 0 nan
nan 0 0 -0 0 -0 -1 -1 -1 -1 -1 -0 -0 0 0 0 1 0 0 -0 -0 0 -0 0 -0 0 -0 0 0 0 0 0 1 1 1 0 -0 -0 -1 -0 -0 -0 -0 -1 -0 0 1 0 nan
nan 1 0 0 0 -1 -1 -0 -1 -1 -1 -0 0 0 0 0 0 0 -0 -0 -0 -1 -0 0 0 0 -0 0 0 1 1 1 0 0 0 0 0 -0 -0 -0 -0 -0 -0 -0 0 1 0 -0 nan
nan 1 -0 -0 -1 -1 -1 -0 -1 -1 0 0 0 0 0 0 0 0 -0 -0 -0 -1 -1 -0 -0 0 0 0 0 0 0 0 0 0 -0 -0 -0 -1 -1 -1 -1 -1 -0 -0 0 0 1 0 nan
nan -1 -0 0 -0 0 -1 -1 -1 0 -0 -0 0 -0 0 0 0 0 -0 0 -0 -0 -1 -1 -1 -1 0 0 0 0 -0 -0 0 -0 -0 -0 -0 -0 0 -0 -0 0 0 0 1 1 1 -0 nan
nan 0 1 0 1 -2 -2 -0 -0 -0 0 -0 -0 0 0 0 0 0 -0 -0 0 -0 -0 -0 -1 -1 -1 -0 0 -0 -0 -0 0 -0 -0 0 0 0 0 0 0 0 1 0 -0 1 0 -0 nan
nan -0 -1 -0 0 0 -0 -1 -0 -0 -0 -0 -0 -0 0 0 0 0 0 -0 0 -0 -0 -0 -0 -0 -1 -1 -0 -0 -0 -0 -0 -0 0 0 -0 -0 -0 0 0 0 0 0 0 0 0 0 nan
nan nan nan nan nan nan nan nan nan nan nan nan nan nan nan nan nan nan nan nan nan nan nan nan nan nan nan nan nan nan nan nan nan nan nan nan nan nan nan nan nan nan nan nan nan nan nan nan nan
Wind_Speed
5 3 4 8 7 8 13 1 5 7 5 2 4 6 13 13 10 6 5 6 8 1 7 13 25 26 26 29 31 30 32 30 29 30 29 27 24 23 21 21 22 21 19 19 16 16 17 19 19
2 6 7 12 8 12 2 4 7 3 4 4 6 9 9 9 7 7 5 8 7 2 7 11 24 28 27 29 32 33 33 31 28 27 30 28 26 24 23 22 22 19 18 17 17 18 20 21 21
6 8 13 10 13 13 8 6 4 1 4 7 6 4 8 9 4 7 2 6 6 4 5 12 22 30 31 29 33 37 37 36 35 36 34 31 25 26 25 23 22 18 17 17 18 20 21 21 21
4 9 14 9 16 9 7 3 1 8 6 6 8 9 8 5 7 3 1 5 4 6 7 13 23 29 32 32 36 41 41 41 37 36 35 34 28 28 28 24 17 18 17 18 20 21 22 22 23
9 13 12 16 16 9 4 7 6 10 8 8 10 12 14 8 4 3 3 7 8 8 10 16 23 29 35 40 42 44 45 43 40 38 37 32 28 30 28 24 23 18 19 21 23 23 22 23 23
13 12 13 14 13 7 5 7 7 11 12 12 8 15 16 4 5 6 8 6 12 16 13 21 22 29 32 37 38 44 48 46 43 42 38 33 20 30 27 25 24 24 25 26 25 24 22 23 23
16 12 16 19 13 13 8 8 9 13 14 13 11 11 16 11 6 7 5 9 15 18 16 19 21 26 35 32 50 47 49 48 46 44 38 32 29 30 27 26 25 27 29 27 25 24 23 22 21
20 13 21 19 12 13 9 7 10 15 16 7 9 11 12 6 4 5 5 9 12 15 15 15 20 27 24 23 33 37 44 46 46 43 38 32 33 30 27 29 27 29 29 27 25 23 22 22 21
12 13 15 19 14 11 7 6 15 11 16 19 15 14 16 6 5 4 6 6 12 14 15 13 13 19 23 16 42 35 46 48 48 42 40 37 35 28 31 28 28 30 29 27 26 23 22 21 20
17 13 20 18 10 13 14 8 13 17 18 20 19 18 18 8 7 9 9 10 10 15 18 17 13 7 7 14 16 26 28 29 45 43 41 38 36 36 32 30 30 31 30 28 26 22 21 21 21
21 20 20 20 11 15 17 16 18 18 17 22 20 17 16 7 10 11 9 9 8 9 16 15 10 14 15 19 27 13 19 32 35 42 42 39 33 33 34 33 31 31 30 28 25 23 20 15 15
21 25 22 23 25 17 17 21 22 23 22 24 20 21 13 12 11 12 11 10 7 9 11 10 10 15 21 25 27 18 24 34 23 37 38 36 37 39 35 38 35 34 32 31 28 24 16 15 14
21 20 23 26 20 24 23 22 24 27 25 24 22 20 14 13 11 10 10 8 8 8 9 9 10 12 17 24 18 23 20 29 34 33 38 36 42 42 34 37 35 29 27 31 25 20 17 14 13
20 20 20 24 26 24 21 22 25 29 26 20 17 18 15 12 10 10 11 10 8 8 8 8 10 13 14 17 20 21 23 31 31 35 39 38 40 39 37 34 32 27 27 26 23 20 18 16 14
25 21 22 21 24 23 24 23 24 31 24 17 15 15 14 13 11 11 11 10 9 9 12 9 11 11 15 17 18 22 27 33 35 38 41 40 40 41 41 35 33 28 27 26 24 20 17 17 14
17 19 20 19 24 23 21 20 20 6 11 14 18 14 14 13 13 11 10 9 8 11 12 13 12 13 14 16 20 19 32 35 38 41 43 40 37 40 43 36 33 29 28 26 23 22 20 17 15
20 20 22 20 16 13 13 16 17 8 11 15 17 16 15 13 13 12 10 8 9 10 13 13 11 11 12 16 20 25 30 35 42 44 50 51 42 40 41 34 34 33 25 26 24 22 21 18 16
23 22 21 21 19 15 16 20 17 22 18 17 18 16 13 13 14 13 11 10 9 12 11 11 12 13 11 11 14 19 30 39 45 52 52 49 47 43 43 34 30 27 25 25 24 23 19 17 16
24 26 24 17 13 11 15 18 18 17 22 19 19 17 15 12 11 12 13 11 11 13 12 12 12 11 7 11 14 18 30 36 50 55 53 51 48 49 39 34 31 30 26 29 25 23 21 16 15
26 28 26 20 21 15 17 19 21 20 19 23 23 18 15 14 12 14 13 12 13 14 14 15 13 10 9 9 14 12 20 42 49 50 54 47 51 48 43 37 37 34 26 23 23 22 19 16 17
25 26 23 24 21 23 16 22 22 22 26 27 27 17 18 13 16 17 16 15 14 16 17 18 16 14 12 11 16 20 33 42 46 45 46 48 53 51 46 39 37 34 25 27 28 25 20 16 17
23 20 21 23 20 17 18 19 18 14 14 18 19 23 21 17 14 18 19 17 16 16 16 15 17 16 15 14 21 21 19 35 40 46 42 45 43 44 45 34 36 34 29 26 26 23 22 17 12
21 17 17 19 19 19 23 15 14 16 16 19 14 20 21 16 15 19 20 17 17 17 16 16 17 15 19 22 22 25 22 19 22 24 28 33 38 44 43 38 37 33 31 23 24 24 24 21 18
17 14 17 17 15 17 20 19 16 16 15 13 10 6 7 14 16 19 19 17 17 19 18 18 17 15 20 24 27 29 27 26 28 30 36 38 35 43 43 41 41 37 32 28 25 22 22 23 24
14 15 11 12 12 14 17 16 16 11 15 6 6 7 13 13 17 21 22 20 19 20 20 20 18 16 21 23 25 25 27 26 32 30 34 36 39 37 41 39 37 33 31 27 26 23 27 30 29
17 18 11 14 11 11 16 11 15 15 18 19 13 7 10 13 17 23 24 22 20 21 20 20 21 18 23 23 18 21 23 27 32 34 31 31 35 38 39 36 36 40 36 32 27 35 38 33 31
19 19 22 21 18 12 7 10 15 4 8 8 8 13 13 14 16 22 25 23 22 22 23 21 21 19 22 27 22 22 22 24 34 36 31 29 28 33 38 40 42 42 43 39 44 37 39 42 41
21 14 15 14 17 20 17 18 9 11 10 12 11 9 14 14 17 21 26 25 23 22 21 21 21 22 22 24 25 22 24 23 23 27 28 26 27 29 30 37 39 39 37 36 37 42 39 38 37
13 18 16 13 15 15 12 10 10 8 10 5 9 10 10 8 16 21 26 26 24 22 22 22 21 22 23 24 24 25 25 23 25 27 27 29 27 28 27 28 33 32 32 31 31 34 37 34 33
12 17 22 11 16 12 14 14 3 4 3 2 10 7 2 7 12 20 25 27 26 25 24 24 24 23 23 22 24 24 25 25 26 27 31 29 30 29 28 31 28 29 31 31 34 36 37 35 38
Wind_Direction
197 225 275 256 246 228 266 282 318 270 230 130 308 296 326 325 318 329 359 357 347 102 213 247 210 202 205 205 201 202 194 188 180 182 180 174 170 165 159 156 153 153 148 146 145 148 139 135 133
194 236 248 270 256 262 261 112 247 267 306 352 278 277 263 290 312 304 320 310 327 338 223 230 220 212 212 211 207 207 200 195 185 194 185 177 173 169 162 157 159 155 150 146 146 145 140 139 133
182 236 265 237 243 278 344 82 286 254 213 235 271 252 302 303 354 301 311 297 311 296 250 232 242 226 219 217 211 213 200 198 194 189 186 176 177 171 166 160 162 158 151 146 148 144 140 137 132
211 231 247 257 271 243 280 350 157 263 237 253 290 292 267 259 300 263 287 298 297 280 261 238 246 242 229 220 217 215 205 199 195 191 184 176 176 177 170 165 162 158 149 151 147 145 144 135 132
227 263 260 250 262 271 280 297 310 275 282 297 274 276 305 287 224 227 257 285 273 272 263 254 241 243 236 230 224 211 205 200 194 192 184 180 173 174 172 171 161 162 158 151 150 144 140 135 132
236 245 267 262 281 202 230 264 283 273 277 271 284 280 287 216 195 216 262 276 274 277 245 263 248 240 243 241 237 201 204 199 195 189 185 178 179 179 176 172 164 158 156 152 146 142 137 134 136
249 261 264 286 289 288 213 217 259 266 285 280 273 260 294 266 149 182 237 267 277 275 273 263 262 245 237 278 254 227 203 198 193 189 183 180 179 179 178 173 165 160 155 151 145 139 137 137 137
250 263 274 274 271 282 244 205 251 265 278 314 297 279 294 63 138 150 263 267 275 276 274 257 259 246 263 269 211 239 193 197 190 186 181 179 182 178 175 173 165 160 156 152 146 142 140 138 137
251 260 258 266 264 275 255 206 261 272 277 280 271 262 282 272 231 239 249 260 286 285 284 264 266 256 274 253 197 231 199 189 188 184 179 178 177 177 177 169 166 163 159 154 150 147 144 138 136
231 242 250 276 318 301 280 229 259 271 269 270 269 267 258 220 251 255 251 256 255 282 292 286 271 240 150 183 198 221 162 180 183 180 179 175 176 177 164 173 168 166 162 157 153 151 144 144 141
227 245 269 284 270 279 279 270 273 263 271 273 277 319 307 262 256 252 247 246 246 270 282 283 270 194 173 185 190 218 190 185 184 178 177 173 176 168 178 168 169 168 167 162 158 156 151 153 151
242 249 261 270 284 268 263 274 271 268 272 281 285 287 296 282 249 247 244 242 240 256 256 263 248 214 214 191 198 219 215 197 194 180 173 174 176 170 179 169 170 172 170 169 168 162 150 167 170
239 250 263 271 264 267 270 264 273 273 276 278 280 290 278 267 250 236 236 240 237 238 238 250 224 214 217 216 208 217 212 202 184 180 175 182 176 177 179 168 169 172 169 172 169 165 168 175 173
262 259 255 267 264 261 258 264 267 267 268 261 266 277 265 249 235 226 236 243 228 217 219 221 216 213 212 218 216 205 196 197 197 194 186 183 179 178 178 169 165 168 173 168 170 169 176 178 179
267 266 269 256 260 258 260 260 258 264 258 261 260 260 252 239 228 227 237 234 228 207 205 195 201 214 215 214 219 210 207 201 207 195 192 189 184 185 175 172 164 165 177 173 171 176 178 175 176
265 258 261 257 246 250 234 257 274 220 224 237 255 257 237 240 232 227 230 222 218 198 200 215 217 216 229 226 218 216 218 215 203 199 199 190 187 184 173 170 165 172 178 178 177 177 181 178 175
254 254 254 255 220 248 212 254 271 178 230 253 262 262 243 227 225 219 220 214 209 196 208 208 210 219 221 233 235 224 218 211 212 204 201 195 191 187 177 170 171 180 181 181 180 179 182 177 180
238 244 241 254 269 205 253 255 248 263 232 236 259 268 256 237 224 220 210 203 195 196 209 199 199 223 240 255 262 249 221 222 209 200 191 192 191 192 181 185 177 179 183 182 180 182 180 183 182
265 269 262 283 256 264 255 264 269 264 264 260 249 257 251 238 222 206 196 195 189 201 191 186 194 222 215 253 269 245 233 220 203 198 203 199 197 187 186 184 187 182 184 184 182 177 182 182 184
247 259 263 267 275 268 252 263 274 266 263 258 264 268 243 242 201 199 196 191 190 188 186 186 195 210 205 218 227 185 197 189 192 182 198 200 196 187 176 181 196 193 185 180 183 182 184 183 188
248 251 260 265 266 272 270 264 264 260 252 253 256 259 265 243 203 203 200 196 190 189 189 186 197 202 197 204 191 163 142 169 181 179 182 196 199 184 185 187 204 190 192 197 199 191 190 189 205
254 252 261 263 264 262 252 265 270 260 264 229 232 231 233 241 226 200 199 197 192 189 187 187 196 202 197 197 186 176 148 146 160 178 188 196 183 178 186 192 203 197 199 208 205 210 214 194 223
265 275 258 263 254 262 256 261 257 258 257 251 242 245 244 217 211 198 198 198 188 187 184 185 198 199 190 187 179 185 181 184 181 178 177 165 177 188 193 200 210 210 210 205 213 215 216 225 224
255 265 252 256 249 249 247 252 253 251 237 226 241 224 268 196 198 194 192 192 187 185 181 187 200 197 190 189 188 187 196 198 194 190 182 184 181 191 197 202 207 208 216 219 221 224 225 235 240
247 233 248 229 229 243 242 229 241 253 252 231 221 236 189 191 196 191 188 188 190 181 184 184 189 200 193 191 195 202 210 209 196 190 191 191 191 193 195 202 208 211 217 218 218 225 233 239 245
213 214 250 238 244 279 271 232 247 233 243 258 238 231 233 196 195 194 192 190 192 182 186 179 182 185 187 186 187 192 192 200 193 187 192 196 201 204 207 203 207 213 223 231 235 247 246 246 248
226 219 225 256 279 264 250 255 270 173 240 248 211 219 212 203 199 197 192 192 192 190 186 183 179 182 183 182 186 194 188 189 202 205 203 200 206 211 210 213 218 222 231 238 238 243 247 250 250
239 251 220 226 247 251 257 253 235 202 207 238 232 219 230 203 201 198 194 192 194 194 191 189 183 182 185 191 191 191 189 196 194 199 207 209 209 206 210 217 221 227 230 233 242 248 249 248 250
210 237 253 249 231 242 255 271 344 201 160 300 312 320 245 216 202 200 195 191 192 191 192 191 191 187 189 190 193 195 197 199 197 197 204 207 205 205 208 218 218 221 228 235 241 250 252 249 254
310 226 225 237 241 246 248 254 328 320 104 236 311 312 335 269 216 202 195 189 192 193 192 195 193 195 193 193 192 196 199 201 204 205 208 210 213 212 215 217 221 228 236 242 244 249 248 249 253
Height
1499 1499 1501 1501 1495 1473 1459 1461 1462 1466 1468 1469 1474 1475 1473 1475 1476 1481 1480 1480 1480 1484 1485 1483 1484 1485 1487 1489 1492 1495 1498 1499 1499 1503 1507 1510 1513 1514 1515 1518 1523 1523 1525 1528 1529 1533 1533 1535 1536
1501 1503 1501 1493 1487 1465 1448 1454 1466 1464 1469 1473 1475 1476 1474 1472 1476 1480 1481 1479 1480 1482 1485 1484 1483 1485 1487 1489 1492 1494 1499 1500 1501 1503 1509 1511 1513 1517 1517 1519 1524 1524 1526 1529 1532 1534 1535 1537 1537
1499 1502 1498 1482 1472 1466 1456 1456 1461 1466 1472 1474 1473 1472 1475 1473 1476 1480 1480 1479 1480 1482 1484 1486 1483 1484 1486 1487 1489 1492 1494 1499 1500 1501 1507 1510 1515 1517 1519 1520 1525 1527 1528 1530 1534 1536 1538 1539 1542
1501 1499 1495 1484 1469 1455 1462 1458 1465 1470 1468 1471 1472 1472 1470 1474 1477 1479 1479 1478 1479 1481 1482 1481 1481 1481 1484 1484 1485 1488 1491 1493 1498 1504 1506 1507 1510 1518 1520 1521 1523 1528 1529 1532 1535 1539 1541 1541 1543
1498 1492 1480 1471 1464 1453 1461 1464 1468 1467 1465 1470 1469 1470 1470 1470 1473 1476 1476 1475 1476 1478 1478 1476 1476 1474 1474 1478 1478 1481 1486 1490 1496 1501 1506 1506 1514 1517 1519 1522 1523 1527 1531 1534 1538 1540 1544 1544 1546
1493 1486 1478 1466 1451 1450 1460 1465 1470 1468 1466 1467 1470 1470 1468 1466 1469 1473 1472 1472 1472 1473 1473 1470 1470 1469 1470 1471 1462 1464 1481 1485 1491 1497 1503 1506 1512 1518 1521 1524 1525 1527 1531 1537 1539 1542 1545 1547 1549
1489 1476 1472 1462 1457 1454 1456 1462 1468 1465 1462 1463 1464 1466 1467 1463 1466 1467 1469 1468 1469 1467 1467 1465 1463 1462 1465 1471 1458 1454 1477 1481 1487 1493 1500 1505 1510 1516 1521 1524 1526 1529 1533 1537 1542 1545 1547 1550 1553
1487 1478 1472 1460 1459 1455 1451 1461 1467 1466 1462 1462 1467 1465 1463 1464 1465 1466 1466 1465 1464 1463 1463 1461 1459 1456 1455 1457 1447 1455 1461 1478 1486 1492 1497 1505 1511 1517 1521 1525 1528 1531 1534 1539 1542 1546 1550 1552 1554
1486 1480 1470 1458 1452 1451 1452 1459 1463 1464 1464 1462 1460 1463 1464 1464 1464 1465 1466 1464 1460 1460 1460 1459 1456 1452 1451 1446 1453 1457 1467 1476 1483 1491 1496 1503 1510 1515 1521 1527 1529 1533 1536 1540 1543 1548 1551 1553 1556
1480 1471 1463 1452 1451 1454 1455 1453 1458 1460 1458 1456 1454 1454 1456 1459 1462 1462 1462 1462 1461 1457 1457 1456 1456 1453 1450 1449 1454 1459 1444 1460 1480 1489 1497 1502 1508 1513 1521 1525 1530 1535 1537 1541 1545 1549 1552 1554 1557
1472 1467 1459 1453 1454 1458 1456 1453 1453 1453 1451 1451 1449 1450 1454 1456 1460 1460 1459 1459 1457 1457 1454 1454 1454 1454 1451 1452 1456 1461 1467 1477 1469 1487 1495 1500 1507 1515 1519 1523 1530 1534 1538 1542 1545 1549 1553 1557 1558
1467 1463 1460 1457 1456 1456 1454 1454 1450 1448 1447 1448 1447 1448 1452 1455 1457 1457 1456 1456 1453 1452 1452 1452 1452 1453 1455 1458 1460 1464 1471 1478 1469 1486 1495 1498 1505 1512 1519 1521 1527 1532 1536 1540 1544 1549 1554 1558 1560
1457 1457 1458 1456 1454 1454 1453 1451 1448 1444 1445 1445 1445 1445 1448 1451 1452 1454 1455 1453 1450 1447 1447 1448 1451 1452 1453 1457 1461 1464 1466 1473 1479 1488 1494 1498 1503 1510 1517 1521 1524 1532 1537 1539 1544 1549 1555 1559 1560
1457 1453 1453 1453 1450 1449 1449 1446 1446 1439 1440 1440 1441 1442 1444 1447 1448 1450 1452 1451 1450 1445 1446 1446 1448 1451 1454 1455 1459 1462 1466 1473 1479 1486 1490 1497 1502 1509 1515 1522 1524 1531 1537 1540 1544 1549 1552 1557 1560
1461 1455 1450 1448 1446 1443 1444 1440 1436 1430 1432 1433 1436 1437 1440 1442 1444 1446 1448 1448 1448 1446 1445 1445 1447 1449 1452 1454 1457 1460 1466 1470 1474 1482 1490 1494 1501 1507 1513 1520 1523 1528 1536 1540 1544 1547 1552 1555 1559
1461 1454 1451 1437 1435 1434 1437 1436 1424 1423 1427 1431 1430 1429 1434 1438 1440 1442 1444 1445 1444 1443 1443 1442 1443 1446 1449 1452 1455 1458 1462 1468 1473 1479 1485 1493 1499 1504 1512 1518 1522 1528 1534 1539 1542 1545 1551 1553 1556
1456 1451 1438 1429 1424 1430 1432 1429 1419 1420 1425 1426 1425 1424 1425 1430 1436 1438 1440 1441 1440 1440 1439 1441 1442 1444 1446 1447 1451 1454 1458 1463 1468 1473 1479 1486 1494 1503 1511 1515 1520 1526 1532 1537 1540 1545 1548 1550 1555
1453 1438 1433 1432 1421 1417 1427 1422 1420 1417 1415 1416 1418 1418 1419 1423 1428 1433 1436 1438 1436 1437 1437 1439 1441 1442 1443 1444 1445 1447 1450 1456 1462 1468 1472 1481 1490 1501 1508 1511 1519 1527 1532 1536 1538 1543 1547 1549 1552
1443 1431 1420 1416 1414 1418 1420 1418 1413 1412 1411 1409 1410 1411 1414 1418 1424 1429 1432 1434 1434 1433 1435 1437 1439 1440 1441 1441 1442 1441 1440 1447 1453 1460 1469 1478 1486 1496 1505 1513 1518 1525 1529 1531 1536 1540 1545 1547 1550
1445 1439 1430 1422 1419 1418 1420 1416 1412 1409 1406 1406 1405 1405 1407 1412 1420 1426 1428 1430 1430 1430 1432 1434 1437 1440 1440 1441 1439 1437 1432 1437 1448 1453 1466 1475 1483 1491 1503 1509 1515 1522 1526 1530 1535 1538 1543 1545 1547
1436 1435 1432 1428 1422 1414 1415 1416 1409 1403 1401 1401 1401 1404 1405 1406 1413 1421 1424 1426 1427 1428 1429 1431 1434 1438 1440 1441 1442 1441 1436 1440 1449 1456 1464 1472 1479 1488 1499 1507 1514 1520 1523 1527 1531 1534 1539 1541 1543
1434 1429 1430 1429 1428 1424 1410 1415 1397 1389 1387 1388 1394 1396 1399 1403 1408 1414 1420 1423 1423 1425 1427 1430 1431 1435 1439 1441 1444 1446 1444 1447 1452 1459 1465 1471 1479 1490 1499 1506 1512 1515 1520 1526 1528 1530 1535 1538 1541
1431 1426 1429 1426 1423 1420 1414 1414 1398 1389 1390 1385 1384 1387 1389 1397 1402 1409 1416 1420 1420 1423 1424 1426 1429 1433 1436 1440 1444 1448 1450 1452 1457 1462 1467 1474 1483 1491 1497 1504 1507 1512 1519 1522 1524 1527 1531 1533 1537
1431 1428 1428 1422 1420 1422 1408 1406 1394 1385 1380 1377 1378 1380 1386 1390 1399 1405 1412 1417 1419 1419 1421 1424 1426 1430 1433 1438 1442 1446 1450 1454 1458 1462 1468 1474 1480 1487 1494 1500 1505 1510 1514 1517 1521 1523 1527 1530 1533
1429 1431 1437 1429 1420 1413 1393 1393 1389 1376 1373 1372 1375 1380 1386 1390 1396 1402 1407 1412 1417 1415 1418 1422 1424 1427 1431 1436 1440 1445 1448 1453 1457 1463 1469 1473 1478 1484 1490 1497 1502 1506 1510 1513 1517 1520 1525 1525 1527
1423 1430 1431 1430 1413 1406 1381 1388 1380 1369 1375 1374 1375 1380 1381 1386 1392 1397 1402 1408 1413 1414 1417 1418 1422 1425 1429 1435 1439 1443 1448 1452 1457 1463 1468 1472 1477 1482 1487 1493 1498 1502 1506 1510 1513 1516 1519 1521 1522
1415 1421 1414 1420 1410 1420 1404 1383 1372 1370 1374 1372 1373 1376 1377 1382 1388 1393 1398 1404 1409 1411 1413 1416 1419 1424 1427 1433 1439 1442 1446 1451 1455 1461 1467 1472 1476 1480 1485 1490 1495 1498 1503 1506 1509 1511 1513 1514 1515
1412 1404 1416 1410 1429 1418 1392 1385 1381 1369 1374 1370 1370 1371 1374 1376 1383 1389 1394 1399 1406 1409 1412 1415 1418 1421 1425 1429 1435 1440 1445 1449 1453 1458 1463 1468 1473 1478 1481 1485 1489 1494 1497 1501 1503 1504 1504 1507 1508
1412 1411 1405 1397 1398 1406 1408 1390 1365 1357 1368 1371 1367 1370 1370 1373 1379 1384 1390 1395 1402 1406 1409 1412 1417 1419 1423 1426 1430 1436 1442 1446 1450 1456 1460 1465 1470 1475 1479 1481 1486 1490 1493 1495 1496 1496 1498 1500 1501
1399 1396 1400 1407 1407 1393 1393 1389 1368 1365 1367 1373 1372 1370 1372 1375 1375 1380 1385 1391 1396 1400 1404 1407 1411 1417 1421 1424 1427 1431 1438 1442 1446 1451 1456 1461 1466 1470 1474 1478 1481 1484 1486 1488 1489 1490 1491 1493 1493